Tracking 19827 objects as of 23-Aug-2019
HD Live streaming from Space Station
objects crossing your sky now

FENGYUN 1C DEB

Track FENGYUN 1C DEB now!
10-day predictions


NORAD ID: 36141
Int'l Code: 1999-025DRN
Perigee: 791.7 km
Apogee: 997.0 km
Inclination: 98.5 °
Period: 102.7 minutes
Semi major axis: 7265 km
RCS: 0.0157 m2 (small)
Launch date: May 10, 1999
Source: People's Republic of China (PRC)
Launch site: Taiyaun Space Center, China (TSC)

Note: This is SATELLITE DEBRIS
aabbcc
Your satellite tracking list
Your tracking list is empty




NASA's NSSDC Master Catalog

Two Line Element Set (TLE):
1 36141U 99025DRN 19233.27168891  .00000669  00000-0  42728-3 0  9997
2 36141  98.4941 261.0042 0141305 294.9378  63.7162 14.01910465532278
Source of the keplerian elements: AFSPC